This demonstration page uses our WeatherBlox Daily Observations layout. Learn more.

Hourly Observations for July 17, 2020

Temp ( °F °C ) Dew Point ( °F °C ) Humidity (%) Winds ( mph kmh ) Pressure ( in mb ) Visibility ( mi km ) Precip ( " mm )
12:15 am 00:15 Clear 74 23.6 70 21.2 86 86 SSE 9 15 29.91 1013 10 16.0934 0 0
12:35 am 00:35 Clear 75 23.7 70 21 85 85 SSE 10 17 29.9 1012 10 16.0934 0 0
12:55 am 00:55 Clear 75 23.8 69 20.8 83 83 SSE 12 19 29.9 1012 10 16.0934 0 0
1:15 am 01:15 Clear 74 23.6 70 20.9 85 85 S 9 15 29.9 1012 10 16.0934 0 0
1:35 am 01:35 Clear 74 23.5 70 21 86 86 SSE 8 13 29.89 1012 10 16.0934 0 0
1:55 am 01:55 Clear 74 23.2 70 21.1 88 88 S 7 11 29.89 1012 10 16.0934 0 0
2:15 am 02:15 Clear 73 22.6 70 21 91 91 SE 7 11 29.89 1012 10 16.0934 0 0
2:35 am 02:35 Clear 73 22.5 70 21 91 91 SSE 7 11 29.89 1012 10 16.0934 0 0
2:55 am 02:55 Clear 73 22.5 70 21 91 91 S 8 13 29.9 1012 10 16.0934 0 0
3:15 am 03:15 Clear 72 22.3 70 21 92 92 S 8 13 29.91 1013 10 16.0934 0 0
3:35 am 03:35 Clear 72 22.2 70 21.1 94 94 SSE 6 9 29.91 1013 10 16.0934 0 0
3:55 am 03:55 Clear 72 22.3 70 21.2 94 94 SSE 7 11 29.91 1013 10 16.0934 0 0
4:15 am 04:15 Clear 72 22.4 70 21.1 92 92 SSE 7 11 29.91 1013 10 16.0934 0 0
4:35 am 04:35 Clear 72 22.1 70 21.1 94 94 S 8 13 29.9 1013 10 16.0934 0 0
4:55 am 04:55 Clear 72 22 70 21 94 94 S 7 11 29.9 1013 10 16.0934 0 0
5:15 am 05:15 Clear 72 22.3 70 21.2 94 94 SSE 8 13 29.91 1013 10 16.0934 0 0
5:35 am 05:35 Clear 73 22.8 71 21.5 92 92 SSE 8 13 29.89 1012 10 16.0934 0 0
5:55 am 05:55 Clear 73 22.6 70 21.3 92 92 S 7 11 29.9 1012 10 16.0934 0 0
6:15 am 06:15 Clear 73 22.5 70 21.3 93 93 SSE 7 11 29.9 1012 10 16.0934 0 0
6:35 am 06:35 Sunny 72 22.2 70 21.2 94 94 SSE 6 9 29.9 1012 10 16.0934 0 0
6:55 am 06:55 Sunny 72 22.3 71 21.4 95 95 SSE 8 13 29.91 1013 10 16.0934 0 0
7:15 am 07:15 Sunny 73 22.5 71 21.5 94 94 SSE 8 13 29.91 1013 10 16.0934 0 0
7:35 am 07:35 Sunny 73 22.7 71 21.6 94 94 S 9 15 29.9 1012 10 16.0934 0 0
7:55 am 07:55 Sunny 74 23.3 72 22 92 92 S 12 19 29.89 1012 10 16.0934 0 0
8:15 am 08:15 Sunny 74 23.6 72 22 91 91 S 9 15 29.89 1012 10 16.0934 0 0
8:35 am 08:35 Sunny 75 24.1 72 22 88 88 S 10 17 29.89 1012 10 16.0934 0 0
8:55 am 08:55 Sunny 76 24.6 71 21.9 85 85 S 7 11 29.88 1012 10 16.0934 0 0
9:15 am 09:15 Sunny 78 25.7 72 22 80 80 S 9 15 29.87 1012 10 16.0934 0 0
9:35 am 09:35 Sunny 80 26.8 71 21.7 74 74 S 14 22 29.84 1011 10 16.0934 0 0
9:55 am 09:55 Sunny 79 26.2 71 21.8 77 77 S 12 19 29.85 1011 10 16.0934 0 0
10:15 am 10:15 Sunny 80 26.5 71 21.7 75 75 S 10 17 29.85 1011 10 16.0934 0 0
10:35 am 10:35 Sunny 82 27.8 70 21 67 67 S 14 22 29.85 1011 10 16.0934 0 0
10:55 am 10:55 Sunny 84 28.7 70 21.1 64 64 SSW 9 15 29.85 1011 10 16.0934 0 0
11:15 am 11:15 Sunny 86 30.2 69 20.5 56 56 SW 9 15 29.84 1010 10 16.0934 0 0
11:35 am 11:35 Sunny 85 29.5 70 21 60 60 SSW 9 15 29.83 1010 10 16.0934 0 0
11:55 am 11:55 Sunny 86 30 69 20.5 57 57 S 9 15 29.83 1010 10 16.0934 0 0
12:15 pm 12:15 Sunny 85 29.5 68 20 57 57 S 8 13 29.84 1011 10 16.0934 0 0
12:35 pm 12:35 Sunny 88 31.3 66 18.7 47 47 S 13 20 29.83 1010 10 16.0934 0 0
12:55 pm 12:55 Sunny 89 31.4 68 20 51 51 S 13 20 29.83 1010 10 16.0934 0 0
1:15 pm 13:15 Sunny 90 32 64 17.9 43 43 SSW 14 22 29.8 1009 10 16.0934 0 0
1:35 pm 13:35 Sunny 89 31.6 65 18.6 46 46 S 14 22 29.81 1009 10 16.0934 0 0
1:55 pm 13:55 Sunny 90 32.1 66 18.8 45 45 S 14 22 29.79 1009 10 16.0934 0 0
2:15 pm 14:15 Sunny 89 31.9 67 19.4 48 48 SSE 13 20 29.79 1009 10 16.0934 0 0
2:35 pm 14:35 Sunny 90 32.2 67 19.2 46 46 S 12 19 29.78 1008 10 16.0934 0 0
2:55 pm 14:55 Sunny 91 32.6 67 19.3 45 45 S 12 19 29.77 1008 10 16.0934 0 0
3:15 pm 15:15 Sunny 91 32.8 66 19.1 44 44 S 10 17 29.77 1008 10 16.0934 0 0
3:35 pm 15:35 Sunny 92 33.5 67 19.2 43 43 SSE 13 20 29.75 1007 10 16.0934 0 0
3:55 pm 15:55 Sunny 93 33.8 67 19.4 43 43 SSE 15 24 29.74 1007 10 16.0934 0 0
4:15 pm 16:15 Sunny 92 33.6 67 19.6 44 44 SSE 10 17 29.73 1007 10 16.0934 0 0
4:35 pm 16:35 Sunny 92 33.6 68 20 45 45 SSE 13 20 29.73 1007 10 16.0934 0 0
4:55 pm 16:55 Sunny 91 33 67 19.7 45 45 SSE 14 22 29.73 1007 10 16.0934 0 0
5:15 pm 17:15 Sunny 91 33 68 20.2 47 47 SSE 12 19 29.73 1007 10 16.0934 0 0
5:35 pm 17:35 Sunny 91 32.6 69 20.7 49 49 SSE 10 17 29.72 1006 10 16.0934 0 0
5:55 pm 17:55 Sunny 91 32.5 70 21 51 51 SSE 12 19 29.72 1006 10 16.0934 0 0
6:15 pm 18:15 Sunny 90 32.4 71 21.6 53 53 SSE 10 17 29.72 1006 10 16.0934 0 0
6:35 pm 18:35 Sunny 90 32.3 72 22.1 55 55 SSE 9 15 29.71 1006 10 16.0934 0 0
6:55 pm 18:55 Sunny 89 31.8 73 22.5 58 58 SE 12 19 29.71 1006 10 16.0934 0 0
7:15 pm 19:15 Sunny 89 31.6 73 22.9 60 60 SE 12 19 29.71 1006 10 16.0934 0 0
7:35 pm 19:35 Sunny 88 31.2 74 23.2 62 62 ESE 12 19 29.71 1006 10 16.0934 0 0
7:55 pm 19:55 Sunny 87 30.6 75 23.8 67 67 SE 9 15 29.71 1006 10 16.0934 0 0
8:15 pm 20:15 Sunny 85 29.6 75 24 72 72 ESE 8 13 29.71 1006 10 16.0934 0 0
8:35 pm 20:35 Sunny 84 29 76 24.2 75 75 ESE 9 15 29.72 1006 10 16.0934 0 0
8:55 pm 20:55 Sunny 83 28.1 76 24.5 81 81 ESE 9 15 29.72 1007 10 16.0934 0 0
9:15 pm 21:15 Clear 82 27.8 76 24.5 82 82 SE 10 17 29.73 1007 10 16.0934 0 0
9:35 pm 21:35 Clear 81 27.4 76 24.2 83 83 SE 8 13 29.74 1007 10 16.0934 0 0
9:55 pm 21:55 Clear 81 27.2 74 23.5 80 80 SSE 9 15 29.74 1007 10 16.0934 0 0
10:15 pm 22:15 Clear 81 27 73 22.7 77 77 SSE 9 15 29.74 1007 10 16.0934 0 0
10:35 pm 22:35 Clear 80 26.7 72 22.2 76 76 SSE 9 15 29.73 1007 10 16.0934 0 0
10:55 pm 22:55 Clear 80 26.5 72 22.3 78 78 SSE 8 13 29.74 1007 10 16.0934 0 0
11:15 pm 23:15 Clear 80 26.5 72 22.4 78 78 SSE 10 17 29.74 1007 10 16.0934 0 0
11:35 pm 23:35 Clear 81 27.2 72 22.3 75 75 S 13 20 29.73 1007 10 16.0934 0 0
11:55 pm 23:55 Clear 81 27.2 72 22 73 73 S 13 20 29.73 1007 10 16.0934 0 0

Powered by AerisWeather